Location: Newark
(9.4667°S, 159.8167°E)
Time: 15:12:30
(UTC+00:00)

Tiros 1 despin weight - All Passes

Search period start: 15 November 2019 00:00
Search period end: 25 November 2019 00:00
Orbit: 594 x 642 km, 48.2° (Epoch: 14 November)

Date Brightness Start Highest point End Pass type
(mag) Time Alt. Az. Time Alt. Az. Time Alt. Az.
15 Nov - 01:38:56 10° W 01:41:24 15° NW 01:43:52 10° NNW daylight
15 Nov - 12:09:58 10° NNE 12:12:25 14° NE 12:14:53 10° E night (unlit)
15 Nov - 13:49:16 10° WNW 13:53:45 47° SW 13:58:17 10° SSE night (unlit)
16 Nov - 00:12:11 10° SW 00:16:38 74° NW 00:21:01 10° NE daylight
16 Nov - 12:24:36 10° NNW 12:28:53 36° NE 12:33:11 10° ESE night (unlit)
16 Nov - 14:07:03 10° W 14:10:23 19° SW 14:13:45 10° S night (unlit)
16 Nov - 22:48:07 10° S 22:51:41 23° SE 22:55:13 10° E daylight
17 Nov - 00:29:23 10° WSW 00:33:06 26° NW 00:36:46 10° N daylight
17 Nov - 12:40:42 10° NW 12:45:22 83° SW 12:50:05 10° SE night (unlit)
17 Nov - 23:03:51 10° SSW 23:08:18 61° SE 23:12:39 10° NE daylight
18 Nov - 11:17:03 10° N 11:20:32 21° NE 11:24:04 10° ESE night (unlit)
18 Nov - 12:57:46 10° WNW 13:01:55 31° SW 13:06:06 10° SSE night (unlit)
18 Nov - 21:40:52 10° SSE 21:43:14 14° SE 21:45:33 10° ESE daylight
18 Nov - 23:20:29 10° SW 23:24:47 46° NW 23:29:01 10° NNE daylight
19 Nov - 11:32:27 10° NNW 11:36:59 55° NE 11:41:36 10° SE night (unlit)
19 Nov - 13:16:22 10° WSW 13:18:37 13° SW 13:20:53 10° SSW night (unlit)
19 Nov - 21:55:48 10° SSW 21:59:55 34° SE 22:03:57 10° ENE daylight
19 Nov - 23:38:17 10° W 23:41:14 17° NW 23:44:10 10° N daylight
20 Nov - 10:10:28 10° NNE 10:12:12 12° NE 10:13:55 10° ENE night (unlit)
20 Nov - 11:48:57 10° NW 11:53:30 54° SW 11:58:06 10° SSE night (unlit)
20 Nov - 22:11:57 10° SW 22:16:28 86° NW 22:20:54 10° NE daylight
21 Nov - 10:24:34 10° N 10:28:39 31° NE 10:32:47 10° ESE night (unlit)
21 Nov - 12:06:31 10° W 12:10:07 22° SW 12:13:45 10° S night (unlit)
21 Nov - 20:48:06 10° S 20:51:28 20° SE 20:54:49 10° E daylight
21 Nov - 22:28:58 10° WSW 22:32:56 30° NW 22:36:49 10° N daylight
22 Nov - 10:40:29 10° NW 10:45:06 85° NE 10:49:49 10° SE night (unlit)
22 Nov - 21:03:40 10° SSW 21:08:06 52° SE 21:12:26 10° NE daylight
22 Nov - 22:47:57 10° WNW 22:49:22 11° NW 22:50:47 10° NW daylight
23 Nov - 09:17:12 10° N 09:20:18 18° NE 09:23:27 10° E night (unlit)
23 Nov - 10:57:23 10° WNW 11:01:39 36° SW 11:05:59 10° SSE night (unlit)
23 Nov - 19:41:06 10° SSE 19:42:59 12° SE 19:44:50 10° ESE daylight
23 Nov - 21:20:10 10° SW 21:24:36 55° NW 21:28:57 10° NNE daylight
24 Nov - 09:32:20 10° NNW 09:36:45 47° NE 09:41:14 10° SE night (unlit)
24 Nov - 11:15:38 10° W 11:18:20 15° SW 11:21:03 10° S night (unlit)
24 Nov - 19:55:41 10° SSW 19:59:42 30° SE 20:03:38 10° ENE daylight
24 Nov - 21:37:42 10° W 21:41:03 20° NW 21:44:21 10° N daylight
